Location: Alberta Star Party
(51.6612°N, 112.9089°W)
Time: 22:31:42
(UTC-06:00)

Amateur Radio Satellites - All Passes

Search period start: 22 October 2014 22:01
Search period end: 23 October 2014 22:01
Location: Alberta Star Party, 51.6612°N, 112.9089°W

Satellite Date Start Highest point End Downlink Frequencies (MHz)
Time Altitude Azimuth
ZACube-1 22 Oct 22:13:16 22:17:36 43° 68° (ENE) 22:21:52 437.345 MHz
UKube-1 22 Oct 22:22:49 22:27:09 68° 257° (WSW) 22:31:32 145.840 MHz, 145.915 MHz
HO-68 22 Oct 22:28:54 22:35:31 39° 264° (W) 22:42:12 435.675 MHz FM
UOSAT-12 22 Oct 22:56:35 23:01:00 36° 33° (NNE) 23:05:22 437.025 FM, 437.400 FM
FUNcube-1 22 Oct 22:58:17 23:02:53 79° 256° (WSW) 23:07:26 145.950 - 145.970 MHz USB
SO-50 22 Oct 23:01:08 23:05:48 49° 236° (SW) 23:10:29 436.795 FM
RS-15 22 Oct 23:01:22 23:11:21 43° 112° (ESE) 23:21:19 29.354 - 29.394 USB, Beacon 29.352 USB
STRAND 1 22 Oct 23:03:28 23:04:53 11° 314° (NW) 23:06:19 ?
Oscar 11 22 Oct 23:07:10 23:11:01 31° 265° (W) 23:14:53 145.825 FM, Beacon 2401.500 USB
KITSAT 1 22 Oct 23:40:37 23:47:28 32° 251° (WSW) 23:54:17 435.175 FM
ZACube-1 22 Oct 23:50:11 23:54:08 28° 266° (W) 23:58:03 437.345 MHz
MaSat-1 23 Oct 00:09:29 00:10:56 12° 106° (ESE) 00:12:21 437.345 MHz
UOSAT-12 23 Oct 00:36:45 00:41:23 55° 235° (SW) 00:45:57 437.025 FM, 437.400 FM
FUNcube-1 23 Oct 00:38:30 00:40:00 11° 275° (W) 00:41:29 145.950 - 145.970 MHz USB
RS-15 23 Oct 01:12:08 01:23:05 74° 318° (NW) 01:34:09 29.354 - 29.394 USB, Beacon 29.352 USB
Oscar 10/S400 23 Oct 01:39:38 02:27:45 18° 236° (SW) 04:20:23 145.825 - 145.975 CW/USB, Beacon 145.810 USB
MaSat-1 23 Oct 01:42:07 01:46:12 89° 126° (SE) 01:49:51 437.345 MHz
Oscar 19 23 Oct 01:58:02 02:01:24 17° 88° (E) 02:04:45 437.125 CW, 437.150 USB
AO-27 23 Oct 02:13:11 02:13:25 10° 82° (E) 02:13:39 436.795 MHz FM
Oscar 16 23 Oct 02:42:32 02:47:21 39° 97° (E) 02:52:09 437.025 USB, Beacon 2401.1428
AO-Echo 23 Oct 02:54:04 02:58:43 30° 93° (E) 03:03:21 ?
JAS-1B 23 Oct 02:54:55 03:01:00 46° 99° (E) 03:08:08 435.800 - 435.900 CW/SSB
Uribyol 2 23 Oct 02:58:40 03:03:02 26° 92° (E) 03:07:21 436.500 FM
ITAMSAT 1 23 Oct 03:04:07 03:08:34 27° 93° (E) 03:12:59 435.822 SSB
Gurwin Techsat 1B 23 Oct 03:12:25 03:16:11 19° 88° (E) 03:19:55 435.225 FM
MaSat-1 23 Oct 03:19:52 03:22:19 16° 320° (NW) 03:24:36 437.345 MHz
TMSAT-1 23 Oct 03:25:02 03:28:43 19° 88° (E) 03:32:23 436.925 FM
RS-15 23 Oct 03:27:05 03:37:22 43° 349° (N) 03:47:53 29.354 - 29.394 USB, Beacon 29.352 USB
Oscar 19 23 Oct 03:36:15 03:41:24 81° 287° (WNW) 03:46:30 437.125 CW, 437.150 USB
OPAL 23 Oct 03:46:23 03:49:33 17° 50° (NE) 03:52:41 ?
AO-27 23 Oct 03:48:49 03:54:02 62° 102° (ESE) 03:59:13 436.795 MHz FM
Oscar 16 23 Oct 04:22:01 04:26:42 37° 297° (WNW) 04:31:21 437.025 USB, Beacon 2401.1428
Sapphire 23 Oct 04:27:26 04:31:21 21° 108° (ESE) 04:35:17 437.095 MHz 1200 baud AX-25 AFSK
AO-Echo 23 Oct 04:32:36 04:37:42 51° 293° (WNW) 04:42:49 ?
Uribyol 2 23 Oct 04:37:44 04:42:51 56° 292° (WNW) 04:47:55 436.500 FM
Uosat F 23 Oct 04:38:48 04:41:07 13° 85° (E) 04:43:26 435.120 FM
ITAMSAT 1 23 Oct 04:43:16 04:48:22 53° 293° (WNW) 04:53:26 435.822 SSB
JAS-1B 23 Oct 04:45:54 04:51:43 43° 297° (WNW) 04:58:27 435.800 - 435.900 CW/SSB
PCSat 23 Oct 04:49:09 04:53:52 32° 113° (ESE) 04:58:38 145.825 MHz
Gurwin Techsat 1B 23 Oct 04:51:25 04:56:46 77° 288° (WNW) 05:02:04 435.225 FM
JAS-2 23 Oct 05:01:33 05:04:26 12° 77° (ENE) 05:07:20 435.800 - 435.900 CW/SSB, 435.910 FM
TMSAT-1 23 Oct 05:03:57 05:09:17 79° 288° (WNW) 05:14:35 436.925 FM
Oscar 19 23 Oct 05:16:53 05:20:00 17° 308° (NW) 05:23:07 437.125 CW, 437.150 USB
AO-7 23 Oct 05:17:40 05:25:24 40° 97° (E) 05:33:05 29.400 - 29.500 MHz
OPAL 23 Oct 05:22:34 05:27:42 78° 69° (ENE) 05:32:49 ?
STRAND 1 23 Oct 05:28:01 05:30:47 15° 50° (NE) 05:33:33 ?
AO-27 23 Oct 05:28:56 05:33:12 26° 302° (WNW) 05:37:28 436.795 MHz FM
RS-15 23 Oct 05:41:59 05:52:36 49° 22° (NNE) 06:03:32 29.354 - 29.394 USB, Beacon 29.352 USB
Sapphire 23 Oct 06:08:44 06:14:10 83° 308° (NW) 06:19:38 437.095 MHz 1200 baud AX-25 AFSK
AO-Echo 23 Oct 06:13:41 06:15:21 12° 313° (NW) 06:17:01 ?
Uosat F 23 Oct 06:15:40 06:20:46 79° 105° (ESE) 06:25:49 435.120 FM
Uribyol 2 23 Oct 06:19:13 06:21:17 12° 313° (NW) 06:23:21 436.500 FM
ITAMSAT 1 23 Oct 06:24:53 06:26:47 12° 313° (NW) 06:28:41 435.822 SSB
PCSat 23 Oct 06:31:42 06:37:03 58° 314° (NW) 06:42:26 145.825 MHz
Gurwin Techsat 1B 23 Oct 06:32:42 06:35:56 17° 308° (NW) 06:39:10 435.225 FM
JAS-1B 23 Oct 06:39:30 06:41:00 11° 319° (NW) 06:42:33 435.800 - 435.900 CW/SSB
JAS-2 23 Oct 06:43:42 06:51:09 52° 98° (E) 06:58:47 435.800 - 435.900 CW/SSB, 435.910 FM
TMSAT-1 23 Oct 06:45:08 06:48:26 17° 308° (NW) 06:51:43 436.925 FM
OPAL 23 Oct 07:03:37 07:07:10 19° 268° (W) 07:10:42 ?
STRAND 1 23 Oct 07:04:00 07:09:06 70° 71° (ENE) 07:14:15 ?
Hamsat 23 Oct 07:04:09 07:08:09 41° 98° (E) 07:12:08 145.90 MHz
AO-7 23 Oct 07:10:27 07:18:36 62° 299° (WNW) 07:26:45 29.400 - 29.500 MHz
Sapphire 23 Oct 07:53:52 07:58:23 26° 331° (NNW) 08:02:56 437.095 MHz 1200 baud AX-25 AFSK
RS-15 23 Oct 07:55:01 08:06:08 85° 231° (SW) 08:17:42 29.354 - 29.394 USB, Beacon 29.352 USB
Uosat F 23 Oct 07:55:22 07:59:00 20° 305° (NW) 08:02:38 435.120 FM
SO-67 23 Oct 08:00:15 08:03:02 22° 93° (E) 08:05:48 435.3500 MHz FM
Saudisat 1A 23 Oct 08:07:56 08:10:21 15° 112° (ESE) 08:12:47 436.775 MHz
PCSat 23 Oct 08:17:29 08:21:36 21° 338° (NNW) 08:25:44 145.825 MHz
JAS-2 23 Oct 08:28:57 08:36:06 47° 297° (WNW) 08:43:30 435.800 - 435.900 CW/SSB, 435.910 FM
Hamsat 23 Oct 08:40:29 08:43:56 26° 297° (WNW) 08:47:24 145.90 MHz
STRAND 1 23 Oct 08:45:02 08:48:49 21° 270° (W) 08:52:39 ?
AO-7 23 Oct 09:04:05 09:09:55 22° 322° (NW) 09:15:47 29.400 - 29.500 MHz
SO-67 23 Oct 09:32:59 09:36:05 31° 292° (WNW) 09:39:10 435.3500 MHz FM
Sapphire 23 Oct 09:40:25 09:43:42 16° 357° (N) 09:47:00 437.095 MHz 1200 baud AX-25 AFSK
Saudisat 1A 23 Oct 09:44:51 09:49:16 85° 131° (SE) 09:53:42 436.775 MHz
MaSat-1 23 Oct 09:48:06 09:50:57 75° 55° (NE) 09:53:31 437.345 MHz
HO-68 23 Oct 09:49:54 09:56:20 34° 94° (E) 10:02:42 435.675 MHz FM
PCSat 23 Oct 10:03:46 10:07:04 16° 4° (N) 10:10:22 145.825 MHz
UKube-1 23 Oct 10:06:52 10:09:16 14° 88° (E) 10:11:39 145.840 MHz, 145.915 MHz
RS-15 23 Oct 10:08:09 10:17:03 29° 256° (WSW) 10:26:15 29.354 - 29.394 USB, Beacon 29.352 USB
JAS-2 23 Oct 10:15:31 10:19:30 16° 319° (NW) 10:23:36 435.800 - 435.900 CW/SSB, 435.910 FM
FUNcube-1 23 Oct 10:43:31 10:45:49 14° 87° (E) 10:48:04 145.950 - 145.970 MHz USB
Oscar 11 23 Oct 10:48:51 10:52:46 33° 96° (E) 10:56:39 145.825 FM, Beacon 2401.500 USB
AO-7 23 Oct 10:58:17 10:59:40 11° 349° (N) 11:01:03 29.400 - 29.500 MHz
Sapphire 23 Oct 11:25:00 11:29:11 22° 23° (NNE) 11:33:20 437.095 MHz 1200 baud AX-25 AFSK
Saudisat 1A 23 Oct 11:25:38 11:29:21 26° 333° (NNW) 11:33:06 436.775 MHz
ZACube-1 23 Oct 11:33:23 11:37:29 40° 97° (E) 11:41:28 437.345 MHz
HO-68 23 Oct 11:37:23 11:44:30 64° 295° (WNW) 11:51:34 435.675 MHz FM
UKube-1 23 Oct 11:41:38 11:46:02 79° 287° (WNW) 11:50:24 145.840 MHz, 145.915 MHz
PCSat 23 Oct 11:47:48 11:52:22 26° 29° (NNE) 11:56:55 145.825 MHz
JAS-1B 23 Oct 12:00:51 12:03:24 13° 45° (NE) 12:05:58 435.800 - 435.900 CW/SSB
FUNcube-1 23 Oct 12:18:28 12:22:48 76° 287° (WNW) 12:27:00 145.950 - 145.970 MHz USB
KITSAT 1 23 Oct 12:20:42 12:26:46 24° 105° (ESE) 12:32:51 435.175 FM
Oscar 11 23 Oct 12:25:05 12:28:57 33° 295° (WNW) 12:32:48 145.825 FM, Beacon 2401.500 USB
Oscar 16 23 Oct 12:27:42 12:31:17 19° 55° (NE) 12:34:51 437.025 USB, Beacon 2401.1428
AO-Echo 23 Oct 12:37:09 12:39:21 13° 49° (NE) 12:41:35 ?
Uribyol 2 23 Oct 12:45:34 12:48:16 14° 49° (NE) 12:50:58 436.500 FM
AO-7 23 Oct 12:46:10 12:48:50 12° 17° (NNE) 12:51:31 29.400 - 29.500 MHz
ITAMSAT 1 23 Oct 12:51:01 12:53:51 15° 50° (NE) 12:56:42 435.822 SSB
Gurwin Techsat 1B 23 Oct 13:03:16 13:04:47 11° 46° (NE) 13:06:18 435.225 FM
Saudisat 1A 23 Oct 13:07:38 13:10:20 16° 357° (N) 13:13:02 436.775 MHz
Sapphire 23 Oct 13:08:19 13:13:43 59° 47° (NE) 13:19:05 437.095 MHz 1200 baud AX-25 AFSK
ZACube-1 23 Oct 13:10:06 13:13:44 27° 297° (WNW) 13:17:18 437.345 MHz
TMSAT-1 23 Oct 13:15:50 13:17:04 11° 45° (NE) 13:18:19 436.925 FM
UKube-1 23 Oct 13:19:25 13:21:31 13° 307° (NW) 13:23:37 145.840 MHz, 145.915 MHz
Oscar 19 23 Oct 13:19:45 13:24:35 43° 65° (ENE) 13:29:26 437.125 CW, 437.150 USB
SO-50 23 Oct 13:22:53 13:25:28 15° 111° (ESE) 13:28:06 436.795 FM
HO-68 23 Oct 13:26:11 13:30:58 20° 317° (NW) 13:35:45 435.675 MHz FM
PCSat 23 Oct 13:31:05 13:36:33 85° 52° (NE) 13:42:00 145.825 MHz
AO-27 23 Oct 13:34:08 13:38:34 29° 60° (ENE) 13:43:01 436.795 MHz FM
JAS-1B 23 Oct 13:47:15 13:52:59 60° 68° (ENE) 13:58:35 435.800 - 435.900 CW/SSB
FUNcube-1 23 Oct 13:56:39 13:58:26 12° 307° (NW) 14:00:11 145.950 - 145.970 MHz USB
Oscar 16 23 Oct 14:04:51 14:10:02 86° 255° (WSW) 14:15:14 437.025 USB, Beacon 2401.1428
AO-Echo 23 Oct 14:12:16 14:17:07 62° 70° (ENE) 14:22:10 ?
KITSAT 1 23 Oct 14:13:01 14:21:07 84° 127° (SE) 14:29:14 435.175 FM
Uribyol 2 23 Oct 14:21:40 14:26:50 66° 70° (ENE) 14:32:03 436.500 FM
ITAMSAT 1 23 Oct 14:27:18 14:32:28 69° 70° (ENE) 14:37:42 435.822 SSB
AO-7 23 Oct 14:32:20 14:38:54 28° 43° (NE) 14:45:29 29.400 - 29.500 MHz
Gurwin Techsat 1B 23 Oct 14:38:30 14:43:35 49° 67° (ENE) 14:48:43 435.225 FM
Saudisat 1A 23 Oct 14:48:01 14:51:26 21° 21° (NNE) 14:54:51 436.775 MHz
TMSAT-1 23 Oct 14:50:44 14:55:48 47° 66° (ENE) 15:00:54 436.925 FM
Sapphire 23 Oct 14:52:09 14:56:53 31° 247° (WSW) 15:01:34 437.095 MHz 1200 baud AX-25 AFSK
UOSAT-12 23 Oct 14:55:27 14:57:27 13° 109° (ESE) 14:59:28 437.025 FM, 437.400 FM
Oscar 19 23 Oct 14:59:25 15:04:03 33° 265° (W) 15:08:43 437.125 CW, 437.150 USB
SO-50 23 Oct 15:00:45 15:05:18 85° 131° (SE) 15:10:01 436.795 FM
ISS 23 Oct 15:09:00 15:12:05 35° 153° (SSE) 15:15:11 145.800 FM
AO-27 23 Oct 15:12:44 15:17:50 54° 259° (W) 15:22:59 436.795 MHz FM
PCSat 23 Oct 15:15:29 15:19:20 20° 252° (WSW) 15:23:11 145.825 MHz
JAS-2 23 Oct 15:22:25 15:24:36 12° 35° (NE) 15:26:50 435.800 - 435.900 CW/SSB, 435.910 FM
JAS-1B 23 Oct 15:39:33 15:44:14 24° 268° (W) 15:48:48 435.800 - 435.900 CW/SSB
Oscar 16 23 Oct 15:47:22 15:50:11 15° 274° (W) 15:53:00 437.025 USB, Beacon 2401.1428
AO-Echo 23 Oct 15:52:33 15:56:21 22° 270° (W) 16:00:17 ?
Uosat F 23 Oct 15:56:25 16:00:53 33° 62° (ENE) 16:05:22 435.120 FM
Uribyol 2 23 Oct 16:02:45 16:06:47 22° 269° (W) 16:10:51 436.500 FM
ITAMSAT 1 23 Oct 16:08:34 16:12:29 21° 270° (W) 16:16:26 435.822 SSB
KITSAT 1 23 Oct 16:09:48 16:17:21 41° 332° (NNW) 16:24:56 435.175 FM
Gurwin Techsat 1B 23 Oct 16:19:08 16:23:47 30° 266° (W) 16:28:28 435.225 FM
AO-7 23 Oct 16:22:23 16:30:40 81° 67° (ENE) 16:38:59 29.400 - 29.500 MHz
Saudisat 1A 23 Oct 16:27:23 16:31:48 64° 44° (NE) 16:36:12 436.775 MHz
TMSAT-1 23 Oct 16:31:14 16:35:55 31° 266° (W) 16:40:39 436.925 FM
UOSAT-12 23 Oct 16:32:07 16:36:46 71° 128° (SE) 16:41:30 437.025 FM, 437.400 FM
SO-50 23 Oct 16:42:27 16:46:25 28° 333° (NNW) 16:50:30 436.795 FM
ISS 23 Oct 16:45:15 16:48:36 86° 172° (S) 16:51:57 145.800 FM
JAS-2 23 Oct 17:02:03 17:07:41 39° 59° (ENE) 17:14:02 435.800 - 435.900 CW/SSB, 435.910 FM
OPAL 23 Oct 17:29:15 17:31:03 12° 87° (E) 17:32:52 ?
Uosat F 23 Oct 17:34:47 17:39:34 44° 261° (W) 17:44:24 435.120 FM
Hamsat 23 Oct 18:02:27 18:06:35 59° 72° (ENE) 18:10:43 145.90 MHz
Saudisat 1A 23 Oct 18:07:31 18:11:02 23° 243° (WSW) 18:14:32 436.775 MHz
KITSAT 1 23 Oct 18:08:11 18:15:03 29° 1° (N) 18:21:56 435.175 FM
UOSAT-12 23 Oct 18:13:07 18:17:20 31° 330° (NNW) 18:21:35 437.025 FM, 437.400 FM
AO-7 23 Oct 18:17:28 18:24:21 29° 268° (W) 18:31:19 29.400 - 29.500 MHz
ISS 23 Oct 18:21:57 18:25:18 78° 192° (SSW) 18:28:39 145.800 FM
SO-50 23 Oct 18:25:19 18:28:27 17° 358° (N) 18:31:38 436.795 FM
SO-67 23 Oct 18:38:23 18:40:52 19° 64° (ENE) 18:43:23 435.3500 MHz FM
HO-68 23 Oct 18:41:09 18:44:44 15° 36° (NE) 18:48:19 435.675 MHz FM
JAS-2 23 Oct 18:46:45 18:52:36 51° 263° (W) 18:59:18 435.800 - 435.900 CW/SSB, 435.910 FM
OPAL 23 Oct 19:05:50 19:10:51 74° 107° (ESE) 19:15:48 ?
STRAND 1 23 Oct 19:10:20 19:13:26 16° 87° (E) 19:16:31 ?
Hamsat 23 Oct 19:40:04 19:42:55 18° 270° (W) 19:45:47 145.90 MHz
UOSAT-12 23 Oct 19:55:39 19:58:52 18° 354° (N) 20:02:04 437.025 FM, 437.400 FM
ISS 23 Oct 19:58:49 20:01:44 27° 211° (SSW) 20:04:37 145.800 FM
KITSAT 1 23 Oct 20:05:05 20:12:43 42° 29° (NNE) 20:20:18 435.175 FM
SO-50 23 Oct 20:06:42 20:10:35 24° 22° (NNE) 20:14:30 436.795 FM
SO-67 23 Oct 20:10:24 20:13:38 39° 262° (W) 20:16:55 435.3500 MHz FM
HO-68 23 Oct 20:24:03 20:30:46 46° 59° (ENE) 20:37:31 435.675 MHz FM
OPAL 23 Oct 20:45:32 20:49:16 22° 307° (NW) 20:52:58 ?
STRAND 1 23 Oct 20:48:09 20:53:22 89° 287° (WNW) 20:58:31 ?
ZACube-1 23 Oct 21:01:52 21:03:30 12° 53° (NE) 21:05:07 437.345 MHz
UKube-1 23 Oct 21:06:59 21:10:36 26° 61° (ENE) 21:14:13 145.840 MHz, 145.915 MHz
UOSAT-12 23 Oct 21:36:56 21:40:37 22° 19° (NNE) 21:44:17 437.025 FM, 437.400 FM
FUNcube-1 23 Oct 21:44:23 21:48:05 25° 62° (ENE) 21:51:44 145.950 - 145.970 MHz USB
SO-50 23 Oct 21:47:08 21:51:56 69° 44° (NE) 21:56:48 436.795 FM
Oscar 11 23 Oct 21:48:52 21:53:03 51° 70° (ENE) 21:57:15 145.825 FM, Beacon 2401.500 USB
